Tracking 30105 objects as of 25-Jan-2025
HD Live streaming from Space Station
objects crossing your sky now

COSMOS 886 DEB

Track COSMOS 886 DEB now!
10-day predictions


NORAD ID: 9656
Int'l Code: 1976-126N
Perigee: 637.7 km
Apogee: 1,983.8 km
Inclination: 65.8 °
Period: 111.7 minutes
Semi major axis: 7681 km
RCS: 0.0512 m2 (small)
Launch date: December 27, 1976
Source: Commonwealth of Independent States (former USSR) (CIS)
Launch site: TYURATAM MISSILE AND SPACE COMPLEX (TTMTR)

Note: This is SATELLITE DEBRIS
Your satellite tracking list
Your tracking list is empty




NASA's NSSDC Master Catalog

Two Line Element Set (TLE):
1 09656U 76126N   25024.42234026  .00003083  00000-0  20882-2 0  9990
2 09656  65.8212 140.4401 0876152 294.6877  56.5399 12.89476683216570
Source of the keplerian elements: AFSPC